Location: Philomena
(55.1756°N, 111.6233°W)
Time: 10:26:56
(UTC+00:00)

PCSat - Pass Details

Date: 13 December 2023
Orbit: 784 x 791 km, 67.0° (Epoch: 23 February)

Event Time Altitude Azimuth Distance (km) Brightness Sun altitude
Exits shadow 11:46:41 28° 22° (NNE) 1,459 11.1 -32.1°
Drops below altitude 10° 11:49:25 10° 39° (NE) 2,365 12.5 -31.7°
Sets 11:51:57 0° 45° (NE) 3,298 13.4 -31.4°
